EW4196 Weather Reports


Display with metric or nautical units.
time (UTC)temp
F
wind
direction
speed
MPH
gust
MPH
rain 1hr
in
rain 24hr
in
rain mn
in
humidity
%
barometer
mb
20260831213042 102 91 0.0 12.0 0.00 0.00 0.00 29 1011.8
20260831211537 101 121 0.0 1.0 0.00 0.00 0.00 29 1011.9
20260831210038 101 179 0.0 6.0 0.00 0.00 0.00 30 1012.1
20260831204549 101 141 0.0 6.0 0.00 0.00 0.00 28 1012.2
20260831203054 102 94 0.0 5.0 0.00 0.00 0.00 29 1012.4
20260831201535 101 167 0.0 7.0 0.00 0.00 0.00 30 1012.6
20260831200039 102 110 0.0 6.0 0.00 0.00 0.00 28 1012.8
20260831194536 102 137 0.0 5.0 0.00 0.00 0.00 28 1012.8
20260831193034 102 133 0.0 8.0 0.00 0.00 0.00 29 1012.9
20260831191534 102 96 0.0 3.0 0.00 0.00 0.00 29 1013.2
20260831190042 101 128 0.0 5.0 0.00 0.00 0.00 30 1013.4
20260831184532 101 157 0.0 5.0 0.00 0.00 0.00 31 1013.5
20260831183028 101 108 0.0 8.0 0.00 0.00 0.00 30 1013.7
20260831181527 101 175 0.0 4.0 0.00 0.00 0.00 30 1013.8
20260831180031 101 124 1.0 7.0 0.00 0.00 0.00 32 1014.0
20260831174522 100 132 0.0 6.0 0.00 0.00 0.00 35 1014.3
20260831173016 99 142 0.0 2.0 0.00 0.00 0.00 37 1014.5
20260831171515 98 129 0.0 7.0 0.00 0.00 0.00 38 1014.7
20260831170012 98 105 0.0 5.0 0.00 0.00 0.00 39 1015.0
20260831164508 97 141 0.0 1.0 0.00 0.00 0.00 42 1015.1
20260831163006 96 92 0.0 3.0 0.00 0.00 0.00 42 1015.0
20260831161506 95 119 0.0 2.0 0.00 0.00 0.00 44 1015.1
20260831160131 95 136 0.0 1.0 0.00 0.00 0.00 44 1015.2
20260831154556 93 100 0.0 2.0 0.00 0.00 0.00 47 1015.2
20260831153125 91 129 0.0 2.0 0.00 0.00 0.00 50 1015.1
20260831151548 90 134 0.0 5.0 0.00 0.00 0.00 51 1015.0
20260831150045 89 98 0.0 2.0 0.00 0.00 0.00 52 1015.0
20260831144540 87 105 0.0 1.0 0.00 0.00 0.00 54 1015.1
20260831143036 85 141 0.0 4.0 0.00 0.00 0.00 58 1015.2
20260831141532 83 105 0.0 1.0 0.00 0.00 0.00 62 1015.2
20260831140031 80 94 0.0 2.0 0.00 0.00 0.00 65 1015.3
20260831134530 79 96 0.0 4.0 0.00 0.00 0.00 66 1015.3
20260831133030 78 98 1.0 4.0 0.00 0.00 0.00 68 1015.3
20260831131528 76 99 0.0 0.0 0.00 0.00 0.00 70 1015.1
20260831130024 75 99 0.0 0.0 0.00 0.00 0.00 71 1014.9
20260831124522 75 99 0.0 0.0 0.00 0.00 0.00 72 1014.6
20260831123034 74 100 0.0 1.0 0.00 0.00 0.00 73 1014.4
20260831121524 73 100 0.0 0.0 0.00 0.00 0.00 73 1014.2
20260831120030 73 100 0.0 0.0 0.00 0.00 0.00 70 1014.0
20260831114516 75 100 0.0 0.0 0.00 0.00 0.00 68 1013.9
20260831113007 76 100 0.0 0.0 0.00 0.00 0.00 67 1013.6
20260831111504 76 100 0.0 1.0 0.00 0.00 0.00 66 1013.4
20260831110100 77 120 0.0 1.0 0.00 0.00 0.00 65 1013.3
20260831104557 77 92 0.0 6.0 0.00 0.00 0.00 65 1013.2
20260831103056 77 101 0.0 5.0 0.00 0.00 0.00 65 1013.2
20260831101604 77 103 0.0 7.0 0.00 0.00 0.00 65 1013.0
20260831100053 77 102 0.0 3.0 0.00 0.00 0.00 65 1012.9
20260831094604 77 104 0.0 2.0 0.00 0.00 0.00 65 1012.9
20260831093049 78 100 0.0 1.0 0.00 0.00 0.00 64 1012.8
20260831091547 78 104 0.0 2.0 0.00 0.00 0.00 63 1012.7
20260831090047 79 94 0.0 2.0 0.00 0.00 0.00 63 1012.7
20260831084548 79 102 0.0 3.0 0.00 0.00 0.00 62 1012.6
20260831083052 80 96 0.0 1.0 0.00 0.00 0.00 62 1012.4
20260831081547 80 101 0.0 6.0 0.00 0.00 0.00 61 1012.4
20260831080045 81 176 1.0 4.0 0.00 0.00 0.00 61 1012.5
20260831074542 81 98 1.0 4.0 0.00 0.00 0.00 60 1012.5
20260831073041 81 97 0.0 4.0 0.00 0.00 0.00 60 1012.5
20260831071539 81 112 0.0 3.0 0.00 0.00 0.00 58 1012.4
20260831070106 82 98 0.0 4.0 0.00 0.00 0.00 58 1012.2
20260831064538 82 101 0.0 3.0 0.00 0.00 0.00 58 1012.3
20260831063037 81 105 1.0 6.0 0.00 0.00 0.00 57 1012.3
20260831061536 78 103 0.0 2.0 0.00 0.00 0.00 64 1012.4
20260831060038 78 96 0.0 0.0 0.00 0.00 0.00 63 1012.0
20260831054530 79 96 0.0 0.0 0.00 0.00 0.00 62 1012.0
20260831053027 80 96 0.0 0.0 0.00 0.00 0.00 60 1011.8
20260831051534 81 96 0.0 0.0 0.00 0.00 0.00 58 1011.8
20260831050019 83 96 0.0 0.0 0.00 0.00 0.00 54 1011.7
20260831044518 84 96 0.0 0.0 0.00 0.00 0.00 52 1011.7
20260831043016 85 96 0.0 0.0 0.00 0.00 0.00 49 1011.5
20260831041528 86 96 0.0 0.0 0.00 0.00 0.00 47 1011.5
20260831040035 86 121 0.0 2.0 0.00 0.00 0.00 46 1011.4
20260831034515 87 98 0.0 0.0 0.00 0.00 0.00 46 1011.4
20260831033013 87 96 0.0 0.0 0.00 0.00 0.00 45 1011.4
20260831031512 88 95 0.0 2.0 0.00 0.00 0.00 44 1011.3
20260831030011 88 101 0.0 3.0 0.00 0.00 0.00 44 1011.1
20260831024510 89 99 0.0 1.0 0.00 0.00 0.00 45 1011.0
20260831023017 90 98 1.0 5.0 0.00 0.00 0.00 43 1010.7
20260831021530 90 99 0.0 6.0 0.00 0.00 0.00 41 1010.5
20260831020009 91 98 0.0 1.0 0.00 0.00 0.00 41 1010.3
20260831014508 92 96 0.0 2.0 0.00 0.00 0.00 40 1010.1
20260831013008 92 106 0.0 2.0 0.00 0.00 0.00 38 1009.9
20260831011507 94 100 0.0 5.0 0.00 0.00 0.00 36 1009.9
20260831010018 94 100 0.0 4.0 0.00 0.00 0.00 34 1009.8
20260831004506 95 103 0.0 3.0 0.00 0.00 0.00 34 1009.8
20260831003005 96 95 0.0 4.0 0.00 0.00 0.00 34 1009.9
20260831001513 97 94 1.0 8.0 0.00 0.00 0.00 33 1009.8
20260831000005 98 122 0.0 8.0 0.00 0.00 0.00 33 1009.9
20260830234504 98 176 0.0 6.0 0.00 0.00 0.00 32 1009.9
20260830233006 99 124 0.0 8.0 0.00 0.00 0.00 32 1009.8
20260830231503 100 92 0.0 4.0 0.00 0.00 0.00 31 1009.8
20260830230002 101 108 0.0 9.0 0.00 0.00 0.00 30 1009.7
20260830224503 101 98 0.0 9.0 0.00 0.00 0.00 30 1009.8
20260830223103 101 101 2.0 8.0 0.00 0.00 0.00 30 1009.8
20260830221558 102 179 0.0 9.0 0.00 0.00 0.00 29 1010.0
20260830220121 102 139 0.0 4.0 0.00 0.00 0.00 28 1010.1
20260830214602 103 126 0.0 5.0 0.00 0.00 0.00 28 1010.1